Quantcast

myMotherLode.com Weather

  • Currently

    Reported at Sonora, 342 South Washington Street, Sonora CA
    03:10 PM PDT Thu Jun 22 2017
  • 106.5°F41.72°C
  • Clear
    Clear
  • Feels Like:102°F39°CDew Point:55°F13°CHumidity:21% Winds:SSW 5 mph 8 kph
    Pressure:29.85 in1011 hPaVisibility:10.00 miles16090.00 meters
Time Weather Temp Dew Point
Humidity Winds Visibility Pressure Precipitation
1 hr 24 hr
Thursday, June 22
14:35 14:35 Sunny Sunny 102°F39°C 55°F13°C 21% WSW 6 mphWSW 9 kph 10.0 miles16.1 km 29.85 in1011 hPa 0.00 in0.00 mm --
14:15 14:15 Sunny Sunny 102°F39°C 55°F13°C 21% WSW 5 mphWSW 7 kph 10.0 miles16.1 km 29.85 in1011 hPa 0.00 in0.00 mm --
13:55 13:55 Sunny Sunny 102°F39°C 55°F13°C 21% W 5 mphW 7 kph 9.0 miles14.5 km 29.85 in1011 hPa 0.00 in0.00 mm --
13:35 13:35 Sunny Sunny 102°F39°C 55°F13°C 21% WSW 6 mphWSW 9 kph 10.0 miles16.1 km 29.85 in1011 hPa 0.00 in0.00 mm --
13:15 13:15 Sunny Sunny 102°F39°C 57°F14°C 23% W 7 mphW 11 kph 9.0 miles14.5 km 29.85 in1011 hPa 0.00 in0.00 mm --
12:55 12:55 Sunny Sunny 100°F38°C 57°F14°C 24% S 6 mphS 9 kph 9.0 miles14.5 km 29.85 in1011 hPa 0.00 in0.00 mm --
12:35 12:35 Sunny Sunny 100°F38°C 57°F14°C 24% S 6 mphS 9 kph 9.0 miles14.5 km 29.85 in1011 hPa 0.00 in0.00 mm --
12:15 12:15 Sunny Sunny 99°F37°C 57°F14°C 25% SSE 6 mphSSE 9 kph 8.0 miles12.9 km 29.85 in1011 hPa 0.00 in0.00 mm --
11:55 11:55 Sunny Sunny 100°F38°C 55°F13°C 22% CalmCalm 8.0 miles12.9 km 29.85 in1011 hPa 0.00 in0.00 mm --
11:35 11:35 Sunny Sunny 99°F37°C 55°F13°C 24% S 3 mphS 6 kph 9.0 miles14.5 km 29.85 in1011 hPa 0.00 in0.00 mm --
11:15 11:15 Sunny Sunny 99°F37°C 55°F13°C 24% SW 7 mphSW 11 kph 10.0 miles16.1 km 29.85 in1011 hPa 0.00 in0.00 mm --
10:55 10:55 Sunny Sunny 97°F36°C 55°F13°C 25% S 6 mphS 9 kph 8.0 miles12.9 km 29.85 in1011 hPa 0.00 in0.00 mm --
10:35 10:35 Sunny Sunny 97°F36°C 55°F13°C 25% S 6 mphS 9 kph 8.0 miles12.9 km 29.85 in1011 hPa 0.00 in0.00 mm --
10:15 10:15 Sunny Sunny 93°F34°C 54°F12°C 26% S 3 mphS 6 kph 10.0 miles16.1 km 29.85 in1011 hPa 0.00 in0.00 mm --
09:55 09:55 Sunny Sunny 93°F34°C 54°F12°C 26% CalmCalm 9.0 miles14.5 km 29.85 in1011 hPa 0.00 in0.00 mm --
09:35 09:35 Sunny Sunny 93°F34°C 54°F12°C 26% CalmCalm miles km 29.85 in1011 hPa 0.00 in0.00 mm --
09:15 09:15 Sunny Sunny 91°F33°C 54°F12°C 28% SSW 3 mphSSW 6 kph 10.0 miles16.1 km 29.83 in1010 hPa 0.00 in0.00 mm --
08:55 08:55 Sunny Sunny 91°F33°C 48°F9°C 23% CalmCalm 10.0 miles16.1 km 29.83 in1010 hPa 0.00 in0.00 mm --
08:35 08:35 Sunny Sunny 90°F32°C 54°F12°C 29% CalmCalm 9.0 miles14.5 km 29.83 in1010 hPa 0.00 in0.00 mm --
08:15 08:15 Sunny Sunny 86°F30°C 57°F14°C 38% CalmCalm 9.0 miles14.5 km 29.83 in1010 hPa 0.00 in0.00 mm --
07:55 07:55 Sunny Sunny 84°F29°C 59°F15°C 43% CalmCalm 5.0 miles8.0 km 29.83 in1010 hPa 0.00 in0.00 mm --
07:35 07:35 Sunny Sunny 81°F27°C 61°F16°C 51% CalmCalm 10.0 miles16.1 km 29.83 in1010 hPa 0.00 in0.00 mm --
07:15 07:15 Sunny Sunny 77°F25°C 59°F15°C 54% CalmCalm 10.0 miles16.1 km 29.83 in1010 hPa 0.00 in0.00 mm --
06:55 06:55 Sunny Sunny 72°F22°C 59°F15°C 65% CalmCalm 10.0 miles16.1 km 29.83 in1010 hPa 0.00 in0.00 mm --
06:35 06:35 Sunny Sunny 68°F20°C 57°F14°C 69% CalmCalm 10.0 miles16.1 km 29.83 in1010 hPa 0.00 in0.00 mm --
06:15 06:15 Sunny Sunny 66°F19°C 55°F13°C 68% CalmCalm 10.0 miles16.1 km 29.8 in1009 hPa 0.00 in0.00 mm --
05:55 05:55 Sunny Sunny 64°F18°C 55°F13°C 73% CalmCalm 10.0 miles16.1 km 29.8 in1009 hPa 0.00 in0.00 mm --
05:35 05:35 Clear Clear 64°F18°C 55°F13°C 73% CalmCalm 10.0 miles16.1 km 29.8 in1009 hPa 0.00 in0.00 mm --
05:15 05:15 Clear Clear 64°F18°C 54°F12°C 68% CalmCalm 10.0 miles16.1 km 29.8 in1009 hPa 0.00 in0.00 mm --
04:55 04:55 Clear Clear 66°F19°C 54°F12°C 64% CalmCalm miles km 29.8 in1009 hPa 0.00 in0.00 mm --
04:35 04:35 Clear Clear 66°F19°C 54°F12°C 64% CalmCalm miles km 29.8 in1009 hPa 0.00 in0.00 mm --
04:15 04:15 Clear Clear 66°F19°C 54°F12°C 64% NW 3 mphNW 6 kph miles km 29.8 in1009 hPa 0.00 in0.00 mm --
03:55 03:55 Clear Clear 66°F19°C 54°F12°C 64% CalmCalm miles km 29.8 in1009 hPa 0.00 in0.00 mm --
03:35 03:35 Clear Clear 66°F19°C 55°F13°C 68% CalmCalm miles km 29.77 in1008 hPa 0.00 in0.00 mm --
03:15 03:15 Clear Clear 66°F19°C 54°F12°C 64% CalmCalm miles km 29.8 in1009 hPa 0.00 in0.00 mm --
02:55 02:55 Clear Clear 66°F19°C 55°F13°C 68% CalmCalm miles km 29.8 in1009 hPa 0.00 in0.00 mm --
02:35 02:35 Clear Clear 66°F19°C 55°F13°C 68% CalmCalm miles km 29.8 in1009 hPa 0.00 in0.00 mm --
01:55 01:55 Clear Clear 68°F20°C 55°F13°C 64% NE 5 mphNE 7 kph miles km 29.8 in1009 hPa 0.00 in0.00 mm --
01:35 01:35 Clear Clear 68°F20°C 57°F14°C 69% CalmCalm miles km 29.8 in1009 hPa 0.00 in0.00 mm --
01:15 01:15 Clear Clear 70°F21°C 57°F14°C 64% CalmCalm miles km 29.8 in1009 hPa 0.00 in0.00 mm --
00:55 00:55 Clear Clear 72°F22°C 57°F14°C 61% CalmCalm miles km 29.8 in1009 hPa 0.00 in0.00 mm --
00:35 00:35 Clear Clear 72°F22°C 57°F14°C 61% CalmCalm miles km 29.8 in1009 hPa 0.00 in0.00 mm --
00:15 00:15 Clear Clear 72°F22°C 59°F15°C 65% NE 3 mphNE 6 kph miles km 29.8 in1009 hPa 0.00 in0.00 mm --